FFT2632 KDEN-KDFW

Flight info

Callsign FFT2632
Flight time 1h 35m
Altitude 39000
Route SLEEK2 SLEEK EZEEE MDANO JOVEM6
Aircraft A20N/M-SDE2E3FGHIRWXY/LB1

Departure

Time 2026-05-01 09:12
Airport Denver International Airport (KDEN)

Arrival

Time 2026-05-01 10:47
Airport Dallas Fort Worth International Airport (KDFW)
Time Latitude Longitude Altitude Speed Heading
2026-05-01 08:38 39.85468 -104.66964 5383 ft 0 kts 180°
2026-05-01 09:00 39.85472 -104.66964 5383 ft 3 kts 180°
2026-05-01 09:00 39.85498 -104.66964 5380 ft 4 kts 175°
2026-05-01 09:01 39.85524 -104.66972 5381 ft 4 kts 147°
2026-05-01 09:01 39.85539 -104.66995 5381 ft 3 kts 92°
2026-05-01 09:01 39.85539 -104.67003 5380 ft 0 kts 90°
2026-05-01 09:05 39.85539 -104.66991 5382 ft 3 kts 88°
2026-05-01 09:05 39.85554 -104.66962 5380 ft 9 kts 58°
2026-05-01 09:05 39.85584 -104.66865 5382 ft 16 kts 83°
2026-05-01 09:06 39.85585 -104.66706 5382 ft 19 kts 90°
2026-05-01 09:06 39.85585 -104.66534 5382 ft 20 kts 90°
2026-05-01 09:06 39.85585 -104.66368 5389 ft 14 kts 91°
2026-05-01 09:06 39.85599 -104.66260 5391 ft 11 kts 52°
2026-05-01 09:07 39.85678 -104.66233 5391 ft 14 kts
2026-05-01 09:07 39.85789 -104.66237 5388 ft 18 kts
2026-05-01 09:07 39.85913 -104.66232 5387 ft 18 kts
2026-05-01 09:07 39.86033 -104.66232 5386 ft 12 kts 360°
2026-05-01 09:08 39.86102 -104.66192 5385 ft 5 kts 60°
2026-05-01 09:08 39.86105 -104.66156 5385 ft 0 kts 89°
2026-05-01 09:10 39.86105 -104.66148 5385 ft 4 kts 89°
2026-05-01 09:10 39.86104 -104.66069 5385 ft 12 kts 98°
2026-05-01 09:10 39.86040 -104.66016 5386 ft 12 kts 178°
2026-05-01 09:10 39.86027 -104.66016 5387 ft 0 kts 182°
2026-05-01 09:11 39.85978 -104.66019 5388 ft 31 kts 182°
2026-05-01 09:11 39.85526 -104.66026 5393 ft 96 kts 180°
2026-05-01 09:11 39.84690 -104.66031 5408 ft 145 kts 180°
2026-05-01 09:11 39.83607 -104.65999 5806 ft 155 kts 180°
2026-05-01 09:12 39.82533 -104.65951 6548 ft 154 kts 180°
2026-05-01 09:12 39.81416 -104.65895 6836 ft 176 kts 179°
2026-05-01 09:12 39.80093 -104.65820 7262 ft 205 kts 179°
2026-05-01 09:12 39.79445 -104.65781 7511 ft 216 kts 178°
2026-05-01 09:13 39.77866 -104.65676 8098 ft 238 kts 178°
2026-05-01 09:13 39.76116 -104.65574 8659 ft 262 kts 178°
2026-05-01 09:13 39.75094 -104.65534 9006 ft 271 kts 178°
2026-05-01 09:13 39.73142 -104.65491 9689 ft 291 kts 179°
2026-05-01 09:14 39.71030 -104.65775 10155 ft 317 kts 191°
2026-05-01 09:14 39.68828 -104.66442 10780 ft 333 kts 192°
2026-05-01 09:14 39.66548 -104.67003 11336 ft 346 kts 186°
2026-05-01 09:14 39.64145 -104.67080 11991 ft 344 kts 174°
2026-05-01 09:15 39.61916 -104.65995 12764 ft 349 kts 144°
2026-05-01 09:15 39.60191 -104.63748 13542 ft 354 kts 133°
2026-05-01 09:15 39.58308 -104.61835 14828 ft 335 kts 157°
2026-05-01 09:15 39.56143 -104.60735 15732 ft 339 kts 161°
2026-05-01 09:16 39.53856 -104.59609 15704 ft 365 kts 160°
2026-05-01 09:16 39.51466 -104.58334 15784 ft 376 kts 158°
2026-05-01 09:16 39.49075 -104.56966 16679 ft 374 kts 157°
2026-05-01 09:17 39.44281 -104.54125 18160 ft 383 kts 156°
2026-05-01 09:17 39.41835 -104.52660 18829 ft 388 kts 156°
2026-05-01 09:17 39.36938 -104.49730 20135 ft 393 kts 157°
2026-05-01 09:18 39.34447 -104.48243 20770 ft 397 kts 157°
2026-05-01 09:18 39.29391 -104.45228 22025 ft 403 kts 158°
2026-05-01 09:19 39.24251 -104.42169 23095 ft 411 kts 159°
2026-05-01 09:19 39.21645 -104.40621 23215 ft 411 kts 159°
2026-05-01 09:19 39.19048 -104.39073 23226 ft 411 kts 159°
2026-05-01 09:20 39.13815 -104.36140 23226 ft 407 kts 165°
2026-05-01 09:20 39.08349 -104.34314 23227 ft 405 kts 170°
2026-05-01 09:21 39.02876 -104.32571 23231 ft 405 kts 170°
2026-05-01 09:21 39.00146 -104.31699 23234 ft 405 kts 170°
2026-05-01 09:21 38.94719 -104.29967 23316 ft 407 kts 170°
2026-05-01 09:22 38.89182 -104.28200 24471 ft 411 kts 171°
2026-05-01 09:22 38.84534 -104.26721 25231 ft 417 kts 171°
2026-05-01 09:23 38.81694 -104.25819 25692 ft 421 kts 171°
2026-05-01 09:23 38.75955 -104.23997 26568 ft 428 kts 172°
2026-05-01 09:24 38.70106 -104.22142 27391 ft 436 kts 173°
2026-05-01 09:24 38.67150 -104.21205 27796 ft 439 kts 173°
2026-05-01 09:24 38.61166 -104.19311 28559 ft 446 kts 173°
2026-05-01 09:25 38.55089 -104.17390 29277 ft 453 kts 173°
2026-05-01 09:25 38.49170 -104.14229 29919 ft 479 kts 155°
2026-05-01 09:26 38.46448 -104.11676 30220 ft 491 kts 146°
2026-05-01 09:26 38.41209 -104.05976 30735 ft 497 kts 146°
2026-05-01 09:26 38.38571 -104.03123 30798 ft 497 kts 146°
2026-05-01 09:27 38.30644 -103.94601 30806 ft 497 kts 146°
2026-05-01 09:28 38.25350 -103.88931 30796 ft 497 kts 146°
2026-05-01 09:28 38.20058 -103.83277 30807 ft 497 kts 146°
2026-05-01 09:29 38.12110 -103.74806 30803 ft 497 kts 146°
2026-05-01 09:30 38.04192 -103.66391 30806 ft 497 kts 146°
2026-05-01 09:30 37.96233 -103.57959 30809 ft 496 kts 146°
2026-05-01 09:31 37.90924 -103.52338 30802 ft 496 kts 146°
2026-05-01 09:32 37.83003 -103.43977 30799 ft 496 kts 146°
2026-05-01 09:32 37.77653 -103.38346 31052 ft 499 kts 146°
2026-05-01 09:32 37.75018 -103.35575 31460 ft 499 kts 147°
2026-05-01 09:33 37.72357 -103.32779 31913 ft 497 kts 147°
2026-05-01 09:33 37.69703 -103.29991 32376 ft 495 kts 147°
2026-05-01 09:33 37.64419 -103.24451 33290 ft 491 kts 148°
2026-05-01 09:34 37.61795 -103.21705 33733 ft 489 kts 148°
2026-05-01 09:34 37.59170 -103.18961 34179 ft 487 kts 148°
2026-05-01 09:34 37.53957 -103.13521 34821 ft 486 kts 148°
2026-05-01 09:35 37.51352 -103.10808 35104 ft 486 kts 148°
2026-05-01 09:35 37.46145 -103.05389 35646 ft 485 kts 148°
2026-05-01 09:35 37.43538 -103.02680 35907 ft 486 kts 148°
2026-05-01 09:36 37.40941 -102.99981 36167 ft 485 kts 147°
2026-05-01 09:36 37.38374 -102.97318 36421 ft 485 kts 147°
2026-05-01 09:36 37.35734 -102.94582 36652 ft 485 kts 147°
2026-05-01 09:36 37.33125 -102.91881 36891 ft 485 kts 147°
2026-05-01 09:37 37.30516 -102.89182 37118 ft 486 kts 147°
2026-05-01 09:37 37.25323 -102.83818 37541 ft 486 kts 147°
2026-05-01 09:37 37.22708 -102.81120 37756 ft 486 kts 147°
2026-05-01 09:38 37.17488 -102.75743 38184 ft 485 kts 147°
2026-05-01 09:38 37.14882 -102.73062 38372 ft 485 kts 147°
2026-05-01 09:38 37.12268 -102.70375 38578 ft 485 kts 147°
2026-05-01 09:39 37.07047 -102.65014 38926 ft 485 kts 147°
2026-05-01 09:39 37.04440 -102.62341 39080 ft 484 kts 147°
2026-05-01 09:39 37.01827 -102.59664 39140 ft 484 kts 147°
2026-05-01 09:40 36.94061 -102.51723 39137 ft 482 kts 147°
2026-05-01 09:41 36.88866 -102.46424 39134 ft 481 kts 147°
2026-05-01 09:41 36.81085 -102.38503 39135 ft 480 kts 148°
2026-05-01 09:42 36.75937 -102.33275 39142 ft 479 kts 148°
2026-05-01 09:43 36.65595 -102.22800 39143 ft 478 kts 148°
2026-05-01 09:43 36.60433 -102.17583 39142 ft 477 kts 148°
2026-05-01 09:44 36.52727 -102.09814 39140 ft 476 kts 149°
2026-05-01 09:45 36.47578 -102.04636 39136 ft 475 kts 149°
2026-05-01 09:45 36.39867 -101.96897 39134 ft 474 kts 149°
2026-05-01 09:46 36.34772 -101.91794 39135 ft 473 kts 149°
2026-05-01 09:46 36.29655 -101.86677 39133 ft 472 kts 150°
2026-05-01 09:47 36.24529 -101.81562 39130 ft 472 kts 150°
2026-05-01 09:47 36.19422 -101.76474 39130 ft 471 kts 150°
2026-05-01 09:48 36.14308 -101.71389 39131 ft 470 kts 150°
2026-05-01 09:48 36.09231 -101.66348 39130 ft 470 kts 151°
2026-05-01 09:49 36.04136 -101.61299 39136 ft 469 kts 151°
2026-05-01 09:49 35.99046 -101.56262 39135 ft 468 kts 152°
2026-05-01 09:50 35.93959 -101.51238 39156 ft 467 kts 152°
2026-05-01 09:50 35.88882 -101.46232 39164 ft 467 kts 152°
2026-05-01 09:51 35.83808 -101.41235 39177 ft 466 kts 152°
2026-05-01 09:51 35.78886 -101.35970 39187 ft 476 kts 145°
2026-05-01 09:52 35.74281 -101.30175 39187 ft 476 kts 145°
2026-05-01 09:52 35.69652 -101.24360 39181 ft 475 kts 146°
2026-05-01 09:53 35.65021 -101.18576 39166 ft 474 kts 146°
2026-05-01 09:53 35.60389 -101.12807 39170 ft 473 kts 146°
2026-05-01 09:54 35.55766 -101.07060 39178 ft 473 kts 146°
2026-05-01 09:54 35.51140 -101.01317 39173 ft 472 kts 147°
2026-05-01 09:55 35.46523 -100.95596 39159 ft 471 kts 147°
2026-05-01 09:55 35.41929 -100.89914 39140 ft 471 kts 147°
2026-05-01 09:56 35.37316 -100.84218 39118 ft 471 kts 147°
2026-05-01 09:56 35.32677 -100.78505 39124 ft 475 kts 147°
2026-05-01 09:57 35.27989 -100.72739 39113 ft 478 kts 147°
2026-05-01 09:57 35.23296 -100.66970 39113 ft 479 kts 147°
2026-05-01 09:58 35.20945 -100.64086 39112 ft 479 kts 147°
2026-05-01 09:58 35.14347 -100.56005 39110 ft 481 kts 147°
2026-05-01 09:59 35.09608 -100.50214 39107 ft 481 kts 148°
2026-05-01 09:59 35.04869 -100.44433 39105 ft 482 kts 148°
2026-05-01 10:00 35.00116 -100.38646 39101 ft 483 kts 148°
2026-05-01 10:00 34.95352 -100.32854 39103 ft 483 kts 148°
2026-05-01 10:01 34.90581 -100.27065 39108 ft 484 kts 148°
2026-05-01 10:01 34.85836 -100.21316 39113 ft 485 kts 148°
2026-05-01 10:02 34.81047 -100.15523 39114 ft 485 kts 148°
2026-05-01 10:02 34.76250 -100.09730 39108 ft 485 kts 148°
2026-05-01 10:03 34.71455 -100.03947 39099 ft 483 kts 148°
2026-05-01 10:03 34.66707 -99.98236 39098 ft 483 kts 148°
2026-05-01 10:04 34.61942 -99.92511 38980 ft 480 kts 148°
2026-05-01 10:04 34.59568 -99.89658 38561 ft 478 kts 149°
2026-05-01 10:04 34.57209 -99.86830 37938 ft 476 kts 149°
2026-05-01 10:05 34.54845 -99.84003 37221 ft 476 kts 149°
2026-05-01 10:05 34.52486 -99.81184 36538 ft 476 kts 149°
2026-05-01 10:05 34.50122 -99.78360 35865 ft 476 kts 149°
2026-05-01 10:05 34.47767 -99.75549 35201 ft 475 kts 148°
2026-05-01 10:06 34.45407 -99.72734 34509 ft 476 kts 148°
2026-05-01 10:06 34.43048 -99.69923 33813 ft 476 kts 148°
2026-05-01 10:06 34.40689 -99.67115 33051 ft 475 kts 148°
2026-05-01 10:06 34.38328 -99.64310 32274 ft 476 kts 147°
2026-05-01 10:07 34.35995 -99.61540 31475 ft 477 kts 147°
2026-05-01 10:07 34.33679 -99.58626 30682 ft 486 kts 141°
2026-05-01 10:07 34.31639 -99.55311 30002 ft 495 kts 132°
2026-05-01 10:07 34.29898 -99.51715 29327 ft 495 kts 129°
2026-05-01 10:08 34.26505 -99.44521 27981 ft 487 kts 128°
2026-05-01 10:08 34.24828 -99.40988 27350 ft 483 kts 128°
2026-05-01 10:08 34.23157 -99.37481 26739 ft 478 kts 128°
2026-05-01 10:09 34.21500 -99.34009 26135 ft 475 kts 128°
2026-05-01 10:09 34.19858 -99.30574 25554 ft 471 kts 127°
2026-05-01 10:09 34.18219 -99.27150 24999 ft 467 kts 127°
2026-05-01 10:09 34.16601 -99.23769 24447 ft 464 kts 127°
2026-05-01 10:10 34.14999 -99.20423 24093 ft 457 kts 127°
2026-05-01 10:10 34.13423 -99.17136 24011 ft 460 kts 127°
2026-05-01 10:10 34.10196 -99.10424 23495 ft 462 kts 127°
2026-05-01 10:11 34.08586 -99.07076 22762 ft 462 kts 126°
2026-05-01 10:11 34.06964 -99.03706 21852 ft 464 kts 126°
2026-05-01 10:11 34.05338 -99.00334 20978 ft 466 kts 125°
2026-05-01 10:11 34.03706 -98.96951 20118 ft 467 kts 125°
2026-05-01 10:12 34.02075 -98.93570 19274 ft 466 kts 124°
2026-05-01 10:12 34.00439 -98.90184 18478 ft 466 kts 124°
2026-05-01 10:12 33.97207 -98.83505 16687 ft 461 kts 123°
2026-05-01 10:13 33.95595 -98.80179 15820 ft 458 kts 122°
2026-05-01 10:13 33.93994 -98.76881 14976 ft 453 kts 122°
2026-05-01 10:13 33.92417 -98.73635 14253 ft 446 kts 121°
2026-05-01 10:14 33.89341 -98.67303 12696 ft 431 kts 121°
2026-05-01 10:14 33.87846 -98.64229 11848 ft 417 kts 121°
2026-05-01 10:14 33.86402 -98.61265 10994 ft 403 kts 121°
2026-05-01 10:14 33.85009 -98.58407 10392 ft 386 kts 121°
2026-05-01 10:15 33.83696 -98.55713 10147 ft 361 kts 121°
2026-05-01 10:15 33.82471 -98.53198 10053 ft 338 kts 121°
2026-05-01 10:15 33.81270 -98.50735 10046 ft 344 kts 121°
2026-05-01 10:15 33.80084 -98.48305 10041 ft 325 kts 121°
2026-05-01 10:16 33.78985 -98.46055 10039 ft 300 kts 121°
2026-05-01 10:16 33.77944 -98.43923 10044 ft 298 kts 121°
2026-05-01 10:16 33.75740 -98.39423 10031 ft 338 kts 121°
2026-05-01 10:17 33.74516 -98.36928 10025 ft 344 kts 121°
2026-05-01 10:17 33.72102 -98.32010 10013 ft 345 kts 121°
2026-05-01 10:17 33.70881 -98.29527 10008 ft 345 kts 121°
2026-05-01 10:18 33.68436 -98.24558 9994 ft 345 kts 121°
2026-05-01 10:18 33.67222 -98.22093 9993 ft 346 kts 121°
2026-05-01 10:18 33.65997 -98.19608 9985 ft 346 kts 121°
2026-05-01 10:19 33.64769 -98.17117 9974 ft 346 kts 121°
2026-05-01 10:19 33.63540 -98.14628 9975 ft 349 kts 121°
2026-05-01 10:19 33.62301 -98.12126 9969 ft 347 kts 121°
2026-05-01 10:20 33.59831 -98.07157 9966 ft 347 kts 121°
2026-05-01 10:20 33.58593 -98.04667 9969 ft 347 kts 121°
2026-05-01 10:20 33.57370 -98.02210 9969 ft 347 kts 121°
2026-05-01 10:20 33.56131 -97.99724 9965 ft 348 kts 121°
2026-05-01 10:21 33.54891 -97.97234 9964 ft 348 kts 121°
2026-05-01 10:21 33.52403 -97.92245 9971 ft 348 kts 121°
2026-05-01 10:21 33.51160 -97.89755 9975 ft 348 kts 121°
2026-05-01 10:22 33.48785 -97.84984 9977 ft 315 kts 121°
2026-05-01 10:22 33.46627 -97.80651 9580 ft 298 kts 121°
2026-05-01 10:23 33.45564 -97.78524 9195 ft 296 kts 121°
2026-05-01 10:23 33.43460 -97.74319 8433 ft 291 kts 120°
2026-05-01 10:23 33.42438 -97.72275 8074 ft 289 kts 120°
2026-05-01 10:24 33.40393 -97.68192 7387 ft 282 kts 119°
2026-05-01 10:24 33.38337 -97.64247 7047 ft 282 kts 126°
2026-05-01 10:25 33.35581 -97.60879 7039 ft 283 kts 134°
2026-05-01 10:25 33.32766 -97.57574 7044 ft 284 kts 134°
2026-05-01 10:26 33.31364 -97.55924 7043 ft 283 kts 134°
2026-05-01 10:26 33.29955 -97.54266 7043 ft 284 kts 134°
2026-05-01 10:26 33.27152 -97.50969 7044 ft 285 kts 134°
2026-05-01 10:27 33.24340 -97.47671 6811 ft 281 kts 134°
2026-05-01 10:27 33.21538 -97.44391 5933 ft 285 kts 133°
2026-05-01 10:28 33.20116 -97.42729 5400 ft 288 kts 133°
2026-05-01 10:28 33.17329 -97.39475 5001 ft 267 kts 132°
2026-05-01 10:28 33.16037 -97.37968 4991 ft 252 kts 132°
2026-05-01 10:29 33.13505 -97.35002 4995 ft 255 kts 132°
2026-05-01 10:29 33.12239 -97.33522 4980 ft 255 kts 132°
2026-05-01 10:30 33.09700 -97.30555 4981 ft 256 kts 132°
2026-05-01 10:30 33.07161 -97.27591 4984 ft 255 kts 132°
2026-05-01 10:31 33.04613 -97.24617 4987 ft 256 kts 133°
2026-05-01 10:31 33.02080 -97.21664 4984 ft 257 kts 133°
2026-05-01 10:32 32.99529 -97.18695 4986 ft 256 kts 133°
2026-05-01 10:32 32.98093 -97.17427 4993 ft 261 kts 153°
2026-05-01 10:32 32.94459 -97.16848 4975 ft 270 kts 175°
2026-05-01 10:33 32.90231 -97.16593 4978 ft 318 kts 175°
2026-05-01 10:33 32.86019 -97.16382 4975 ft 285 kts 176°
2026-05-01 10:34 32.84089 -97.16293 4975 ft 275 kts 175°
2026-05-01 10:34 32.82153 -97.16197 4969 ft 279 kts 175°
2026-05-01 10:34 32.80215 -97.16098 4788 ft 279 kts 175°
2026-05-01 10:35 32.76551 -97.16036 4440 ft 246 kts 178°
2026-05-01 10:35 32.74865 -97.16058 4103 ft 237 kts 178°
2026-05-01 10:35 32.73156 -97.16071 4132 ft 250 kts 177°
2026-05-01 10:35 32.71403 -97.16076 4405 ft 253 kts 178°
2026-05-01 10:36 32.68448 -97.16079 4397 ft 252 kts 178°
2026-05-01 10:36 32.66781 -97.16084 4291 ft 227 kts 178°
2026-05-01 10:36 32.65249 -97.16089 4040 ft 215 kts 177°
2026-05-01 10:37 32.63786 -97.16090 3980 ft 201 kts 177°
2026-05-01 10:37 32.61061 -97.16074 3991 ft 194 kts 172°
2026-05-01 10:37 32.59936 -97.15505 3987 ft 167 kts 131°
2026-05-01 10:38 32.59407 -97.14340 3992 ft 162 kts 97°
2026-05-01 10:38 32.59386 -97.13014 3994 ft 159 kts 87°
2026-05-01 10:38 32.59390 -97.11727 3985 ft 158 kts 88°
2026-05-01 10:38 32.59383 -97.10402 3991 ft 160 kts 88°
2026-05-01 10:39 32.59373 -97.09102 3991 ft 160 kts 89°
2026-05-01 10:39 32.59362 -97.07766 3986 ft 160 kts 89°
2026-05-01 10:39 32.59351 -97.06463 3987 ft 160 kts 88°
2026-05-01 10:39 32.59360 -97.05147 3987 ft 159 kts 82°
2026-05-01 10:40 32.59813 -97.03981 3988 ft 159 kts 47°
2026-05-01 10:40 32.60769 -97.03333 3989 ft 161 kts 19°
2026-05-01 10:40 32.61884 -97.03138 3988 ft 165 kts
2026-05-01 10:40 32.62996 -97.03121 3979 ft 148 kts
2026-05-01 10:41 32.63980 -97.03127 3990 ft 140 kts
2026-05-01 10:41 32.64953 -97.03120 3995 ft 140 kts
2026-05-01 10:41 32.66882 -97.03110 3996 ft 139 kts
2026-05-01 10:42 32.67867 -97.03105 3998 ft 140 kts
2026-05-01 10:42 32.68827 -97.03101 3997 ft 139 kts
2026-05-01 10:42 32.69812 -97.03095 4007 ft 144 kts
2026-05-01 10:42 32.70817 -97.03091 3965 ft 144 kts
2026-05-01 10:43 32.71824 -97.03086 3809 ft 145 kts
2026-05-01 10:43 32.72827 -97.03082 3631 ft 145 kts
2026-05-01 10:43 32.73831 -97.03077 3446 ft 143 kts
2026-05-01 10:43 32.74822 -97.03072 3258 ft 143 kts
2026-05-01 10:44 32.75821 -97.03067 3050 ft 143 kts
2026-05-01 10:44 32.76814 -97.03062 2879 ft 144 kts
2026-05-01 10:44 32.77810 -97.03058 2688 ft 141 kts
2026-05-01 10:44 32.78775 -97.03053 2502 ft 139 kts
2026-05-01 10:45 32.79755 -97.03048 2306 ft 140 kts
2026-05-01 10:45 32.80716 -97.03044 2100 ft 139 kts
2026-05-01 10:45 32.81673 -97.03040 1909 ft 136 kts
2026-05-01 10:45 32.82620 -97.03034 1731 ft 138 kts
2026-05-01 10:46 32.83581 -97.03030 1525 ft 140 kts
2026-05-01 10:46 32.84558 -97.03026 1320 ft 138 kts
2026-05-01 10:46 32.85505 -97.03020 1127 ft 140 kts
2026-05-01 10:46 32.86483 -97.03009 928 ft 138 kts
2026-05-01 10:47 32.87434 -97.03009 731 ft 137 kts
2026-05-01 10:47 32.88367 -97.03012 627 ft 132 kts
2026-05-01 10:47 32.89066 -97.02999 619 ft 58 kts
2026-05-01 10:47 32.89260 -97.02997 619 ft 20 kts 359°
2026-05-01 10:48 32.89423 -97.03008 621 ft 26 kts 359°
2026-05-01 10:48 32.89619 -97.02998 622 ft 30 kts
2026-05-01 10:48 32.89840 -97.03025 622 ft 33 kts 347°
2026-05-01 10:48 32.90038 -97.03144 623 ft 28 kts 332°
2026-05-01 10:49 32.90066 -97.03163 624 ft 2 kts 326°
2026-05-01 10:49 32.90069 -97.03171 621 ft 0 kts 280°
2026-05-01 10:49 32.90069 -97.03172 620 ft 0 kts 274°
2026-05-01 10:51 32.90068 -97.03173 620 ft 0 kts 262°
2026-05-01 10:51 32.90039 -97.03191 623 ft 12 kts 192°
2026-05-01 10:51 32.89934 -97.03193 623 ft 18 kts 180°
2026-05-01 10:52 32.89800 -97.03193 623 ft 21 kts 179°
2026-05-01 10:52 32.89646 -97.03195 622 ft 23 kts 181°
2026-05-01 10:52 32.89480 -97.03194 622 ft 24 kts 180°
2026-05-01 10:52 32.89325 -97.03194 621 ft 23 kts 181°
2026-05-01 10:53 32.89159 -97.03199 619 ft 25 kts 179°
2026-05-01 10:53 32.88982 -97.03195 621 ft 26 kts 179°
2026-05-01 10:53 32.88917 -97.03202 622 ft 1 kts 202°
2026-05-01 10:53 32.88898 -97.03226 618 ft 8 kts 241°
2026-05-01 10:54 32.88910 -97.03324 626 ft 12 kts 308°
2026-05-01 10:54 32.88958 -97.03327 621 ft 9 kts 16°
2026-05-01 10:54 32.89046 -97.03322 622 ft 17 kts
2026-05-01 10:54 32.89177 -97.03315 622 ft 14 kts 356°
2026-05-01 10:55 32.89185 -97.03315 625 ft 0 kts 356°
2026-05-01 10:55 32.89198 -97.03333 619 ft 5 kts 302°
2026-05-01 10:55 32.89180 -97.03395 622 ft 17 kts 257°
2026-05-01 10:55 32.89169 -97.03450 615 ft 6 kts 224°
2026-05-01 10:56 32.89128 -97.03439 621 ft 12 kts 163°
2026-05-01 10:56 32.89030 -97.03432 615 ft 13 kts 184°
2026-05-01 10:56 32.89025 -97.03433 625 ft 0 kts 184°
2026-05-01 10:56 32.89019 -97.03433 622 ft 4 kts 184°
2026-05-01 10:57 32.88972 -97.03457 617 ft 7 kts 248°
2026-05-01 10:57 32.88975 -97.03477 622 ft 3 kts 284°
2026-05-01 10:57 32.88981 -97.03497 621 ft 0 kts 289°
2026-05-01 10:57 32.88982 -97.03501 623 ft 2 kts 289°
2026-05-01 10:58 32.88985 -97.03512 627 ft 0 kts 290°